• In Uzbekistan
  • List of Countries
  • For 7 days
  • Water Temperature
  • Satellite Maps
  • Weather Map
  • Weather Widgets
  • user-avatar
    Login

    Hourly Weather Mutare

    Today, 24 November, Friday

    Time Temperature Precipitation Wind Pressure Humidity
    00:00 +19°C° 0 mm 1 mps 654 mmHg 90%
    01:00 +19°C° 0 mm 1 mps 654 mmHg 90%
    02:00 +19°C° 0 mm 1 mps 654 mmHg 91%
    03:00 +18°C° 0 mm 1 mps 654 mmHg 91%
    04:00 +18°C° 0 mm 1 mps 654 mmHg 91%
    05:00 +18°C° 0 mm 1 mps 654 mmHg 92%
    06:00 +19°C° 0 mm 1 mps 654 mmHg 83%
    07:00 +21°C° 0 mm 1 mps 655 mmHg 75%
    08:00 +23°C° 0 mm 1 mps 656 mmHg 64%
    09:00 +25°C° 0 mm 2 mps 656 mmHg 57%
    10:00 +26°C° 0 mm 2 mps 656 mmHg 50%
    11:00 +28°C° 0 mm 2 mps 656 mmHg 43%
    12:00 +28°C° 0 mm 2 mps 655 mmHg 43%
    13:00 +28°C° 0 mm 2 mps 655 mmHg 44%
    14:00 +28°C° 0 mm 2 mps 654 mmHg 44%
    15:00 +27°C° 0 mm 2 mps 654 mmHg 48%
    16:00 +26°C° 0 mm 2 mps 653 mmHg 51%
    17:00 +26°C° 0 mm 2 mps 653 mmHg 55%
    18:00 +24°C° 0 mm 2 mps 653 mmHg 63%
    19:00 +22°C° 0 mm 1 mps 653 mmHg 71%
    20:00 +20°C° 0 mm 1 mps 652 mmHg 80%
    21:00 +20°C° 0 mm 1 mps 652 mmHg 83%
    22:00 +19°C° 0 mm 1 mps 652 mmHg 85%
    23:00 +19°C° 0 mm 1 mps 652 mmHg 88%

    Tomorrow, 25 November, Saturday

    Time Temperature Precipitation Wind Pressure Humidity
    00:00 +19°C° 0 mm 1 mps 652 mmHg 89%
    01:00 +18°C° 0 mm 1 mps 652 mmHg 90%
    02:00 +18°C° 0 mm 1 mps 651 mmHg 91%
    03:00 +18°C° 0 mm 1 mps 651 mmHg 92%
    04:00 +18°C° 0 mm 1 mps 651 mmHg 92%
    05:00 +15°C° 0 mm 0 mps 651 mmHg 93%
    06:00 +20°C° 0 mm 1 mps 652 mmHg 81%
    07:00 +22°C° 0 mm 1 mps 653 mmHg 70%
    08:00 +25°C° 0 mm 1 mps 654 mmHg 58%
    09:00 +26°C° 0 mm 1 mps 655 mmHg 52%
    10:00 +28°C° 0 mm 1 mps 655 mmHg 45%
    11:00 +30°C° 0 mm 1 mps 655 mmHg 39%
    12:00 +29°C° 0.1 mm 2 mps 654 mmHg 40%
    13:00 +29°C° 0.1 mm 2 mps 653 mmHg 41%
    14:00 +28°C° 0.1 mm 2 mps 653 mmHg 43%
    15:00 +27°C° 0.1 mm 2 mps 652 mmHg 45%
    16:00 +27°C° 0.1 mm 2 mps 652 mmHg 48%
    17:00 +26°C° 0.1 mm 3 mps 651 mmHg 51%
    18:00 +24°C° 0.1 mm 2 mps 651 mmHg 57%
    19:00 +23°C° 0.1 mm 2 mps 652 mmHg 63%
    20:00 +20°C° 0.1 mm 2 mps 652 mmHg 69%
    21:00 +20°C° 0.1 mm 2 mps 652 mmHg 72%
    22:00 +20°C° 0.1 mm 1 mps 652 mmHg 75%
    23:00 +20°C° 0.1 mm 1 mps 653 mmHg 78%

    Day after tomorrow, 26 November, Sunday

    Time Temperature Precipitation Wind Pressure Humidity
    00:00 +19°C° 0.1 mm 1 mps 652 mmHg 81%
    01:00 +18°C° 0.1 mm 2 mps 652 mmHg 84%
    02:00 +17°C° 0.1 mm 2 mps 651 mmHg 87%
    03:00 +18°C° 0 mm 1 mps 651 mmHg 87%
    04:00 +18°C° 0 mm 1 mps 651 mmHg 88%
    05:00 +18°C° 0 mm 1 mps 651 mmHg 88%
    06:00 +18°C° 0.1 mm 1 mps 652 mmHg 84%
    07:00 +19°C° 0.1 mm 1 mps 653 mmHg 80%
    08:00 +20°C° 0.1 mm 1 mps 654 mmHg 76%
    09:00 +21°C° 0 mm 1 mps 654 mmHg 70%
    10:00 +23°C° 0 mm 1 mps 654 mmHg 64%
    11:00 +24°C° 0 mm 2 mps 654 mmHg 58%
    12:00 +25°C° 0 mm 2 mps 653 mmHg 54%
    13:00 +26°C° 0 mm 2 mps 653 mmHg 50%
    14:00 +28°C° 0 mm 3 mps 652 mmHg 47%
    15:00 +27°C° 0.1 mm 2 mps 652 mmHg 51%
    16:00 +26°C° 0.1 mm 2 mps 652 mmHg 56%
    17:00 +25°C° 0.1 mm 2 mps 652 mmHg 60%
    18:00 +23°C° 3.7 mm 2 mps 652 mmHg 69%
    19:00 +22°C° 3.7 mm 1 mps 653 mmHg 79%
    20:00 +20°C° 3.7 mm 1 mps 653 mmHg 88%
    21:00 +20°C° 3.5 mm 1 mps 653 mmHg 90%
    22:00 +19°C° 3.5 mm 1 mps 653 mmHg 92%
    23:00 +17°C° 3.5 mm 0 mps 653 mmHg 93%

    27 November, Monday

    Time Temperature Precipitation Wind Pressure Humidity
    00:00 +17°C° 0.1 mm 0 mps 653 mmHg 94%
    01:00 +16°C° 0.1 mm 0 mps 652 mmHg 95%
    02:00 +16°C° 0.1 mm 0 mps 652 mmHg 96%
    03:00 +16°C° 0.1 mm 0 mps 652 mmHg 95%
    04:00 +16°C° 0.1 mm 0 mps 652 mmHg 95%
    05:00 +16°C° 0.1 mm 0 mps 652 mmHg 95%
    06:00 +19°C° 0.1 mm 1 mps 653 mmHg 90%
    07:00 +20°C° 0.1 mm 1 mps 654 mmHg 86%
    08:00 +21°C° 0.1 mm 1 mps 655 mmHg 82%
    09:00 +22°C° 0.5 mm 1 mps 655 mmHg 79%
    10:00 +23°C° 0.5 mm 1 mps 655 mmHg 76%
    11:00 +23°C° 0.5 mm 1 mps 655 mmHg 73%
    12:00 +23°C° 1 mm 1 mps 654 mmHg 73%
    13:00 +23°C° 1 mm 1 mps 654 mmHg 73%
    14:00 +23°C° 1 mm 2 mps 653 mmHg 74%
    15:00 +23°C° 1 mm 2 mps 653 mmHg 75%
    16:00 +21°C° 1 mm 2 mps 653 mmHg 77%
    17:00 +21°C° 1 mm 2 mps 653 mmHg 78%
    18:00 +21°C° 0.4 mm 1 mps 653 mmHg 81%
    19:00 +20°C° 0.4 mm 1 mps 654 mmHg 84%
    20:00 +19°C° 0.4 mm 1 mps 654 mmHg 87%
    21:00 +19°C° 0.2 mm 1 mps 655 mmHg 88%
    22:00 +18°C° 0.2 mm 1 mps 655 mmHg 89%
    23:00 +18°C° 0.2 mm 1 mps 655 mmHg 90%

    28 November, Tuesday

    Time Temperature Precipitation Wind Pressure Humidity
    00:00 +18°C° 0.1 mm 1 mps 654 mmHg 91%
    01:00 +16°C° 0.1 mm 1 mps 654 mmHg 93%
    02:00 +16°C° 0.1 mm 1 mps 653 mmHg 94%
    03:00 +16°C° 0.3 mm 1 mps 654 mmHg 94%
    04:00 +16°C° 0.3 mm 1 mps 654 mmHg 93%
    05:00 +16°C° 0.3 mm 1 mps 654 mmHg 93%
    06:00 +16°C° 0.2 mm 1 mps 655 mmHg 92%
    07:00 +16°C° 0.2 mm 1 mps 655 mmHg 91%
    08:00 +16°C° 0.2 mm 1 mps 656 mmHg 90%
    09:00 +19°C° 0.1 mm 1 mps 656 mmHg 83%
    10:00 +19°C° 0.1 mm 2 mps 656 mmHg 75%
    11:00 +21°C° 0.1 mm 2 mps 656 mmHg 68%
    12:00 +21°C° 0.1 mm 2 mps 656 mmHg 64%
    13:00 +23°C° 0.1 mm 2 mps 655 mmHg 60%
    14:00 +24°C° 0.1 mm 2 mps 655 mmHg 57%
    15:00 +23°C° 0 mm 2 mps 655 mmHg 58%
    16:00 +23°C° 0 mm 2 mps 655 mmHg 60%
    17:00 +23°C° 0 mm 2 mps 654 mmHg 62%
    18:00 +20°C° 0.1 mm 2 mps 655 mmHg 70%
    19:00 +19°C° 0.1 mm 1 mps 655 mmHg 78%
    20:00 +18°C° 0.1 mm 1 mps 655 mmHg 86%
    21:00 +16°C° 0.1 mm 1 mps 655 mmHg 88%
    22:00 +16°C° 0.1 mm 1 mps 655 mmHg 89%
    23:00 +16°C° 0.1 mm 1 mps 655 mmHg 91%

    29 November, Wednesday

    Time Temperature Precipitation Wind Pressure Humidity
    00:00 +16°C° 0 mm 1 mps 654 mmHg 91%
    01:00 +16°C° 0 mm 1 mps 654 mmHg 91%
    02:00 +16°C° 0 mm 1 mps 654 mmHg 91%
    03:00 +16°C° 0 mm 1 mps 654 mmHg 91%
    04:00 +16°C° 0 mm 1 mps 654 mmHg 91%
    05:00 +16°C° 0 mm 1 mps 654 mmHg 91%
    06:00 +18°C° 0 mm 1 mps 655 mmHg 85%
    07:00 +19°C° 0 mm 1 mps 656 mmHg 78%
    08:00 +20°C° 0 mm 1 mps 656 mmHg 72%
    09:00 +22°C° 0 mm 1 mps 656 mmHg 65%
    10:00 +24°C° 0 mm 2 mps 656 mmHg 59%
    11:00 +25°C° 0 mm 2 mps 656 mmHg 53%
    12:00 +26°C° 0 mm 2 mps 656 mmHg 51%
    13:00 +27°C° 0 mm 2 mps 655 mmHg 48%
    14:00 +27°C° 0 mm 2 mps 655 mmHg 46%
    15:00 +26°C° 0 mm 2 mps 655 mmHg 50%
    16:00 +25°C° 0 mm 2 mps 654 mmHg 53%
    17:00 +24°C° 0 mm 2 mps 654 mmHg 57%
    18:00 +23°C° 0 mm 2 mps 654 mmHg 67%
    19:00 +20°C° 0 mm 2 mps 654 mmHg 76%
    20:00 +18°C° 0 mm 2 mps 654 mmHg 85%
    21:00 +18°C° 0 mm 1 mps 654 mmHg 87%
    22:00 +18°C° 0 mm 1 mps 654 mmHg 89%
    23:00 +18°C° 0 mm 1 mps 655 mmHg 91%
    Show more